This is the latest recevied weather packets stored in our database for station/object DL9GRB-13. If no packets are shown the sender has not sent any weather packets the latest 1 day(s).
| Time | Temp. | Humidity | Pressure | Rain* | Wind** | Luminosity | Snow |
|---|---|---|---|---|---|---|---|
| 1778017388 | 7.22° C | 84% | 1009.3 hPa | 0 mm | 2.68 m/s, 88° | 0 W/m² | - |
| 1778017208 | 7.22° C | 84% | 1009.4 hPa | 0 mm | 2.24 m/s, 87° | 0 W/m² | - |
| 1778017028 | 7.22° C | 84% | 1009.2 hPa | 0 mm | 0 m/s | 0 W/m² | - |
| 1778016848 | 7.78° C | 84% | 1009.2 hPa | 0 mm | 0 m/s | 0 W/m² | - |
| 1778016668 | 7.22° C | 85% | 1009.3 hPa | 0 mm | 0 m/s | 0 W/m² | - |
| 1778016488 | 7.22° C | 86% | 1009.2 hPa | 0 mm | 0 m/s | 0 W/m² | - |
| 1778016308 | 7.22° C | 87% | 1009.5 hPa | 0 mm | 2.68 m/s, 65° | 0 W/m² | - |
| 1778016128 | 7.22° C | 87% | 1009.5 hPa | 0 mm | 2.24 m/s, 52° | 0 W/m² | - |
| 1778015948 | 7.22° C | 86% | 1009.6 hPa | 0 mm | 0 m/s | 0 W/m² | - |
| 1778015768 | 7.22° C | 86% | 1009.4 hPa | 0 mm | 0 m/s | 0 W/m² | - |
| 1778015588 | 7.78° C | 86% | 1009.3 hPa | 0 mm | 0 m/s | 0 W/m² | - |
| 1778015408 | 7.78° C | 86% | 1009.4 hPa | 0 mm | 1.79 m/s, 89° | 0 W/m² | - |
| 1778015228 | 7.78° C | 85% | 1009.5 hPa | 0 mm | 3.13 m/s, 85° | 0 W/m² | - |
| 1778015048 | 7.78° C | 85% | 1009.4 hPa | 0 mm | 2.24 m/s, 91° | 0 W/m² | - |
| 1778014868 | 7.78° C | 85% | 1009.5 hPa | 0 mm | 2.24 m/s, 101° | 0 W/m² | - |
| 1778014688 | 8.33° C | 84% | 1009.4 hPa | 0 mm | 2.68 m/s, 88° | 0 W/m² | - |
| 1778014508 | 8.33° C | 84% | 1009.3 hPa | 0 mm | 2.24 m/s, 89° | 0 W/m² | - |
| 1778014328 | 8.33° C | 84% | 1009.5 hPa | 0 mm | 3.13 m/s, 89° | 0 W/m² | - |
| 1778014148 | 8.33° C | 84% | 1009.4 hPa | 0 mm | 2.68 m/s, 76° | 0 W/m² | - |
| 1778013968 | 8.33° C | 83% | 1009.3 hPa | 0 mm | 4.02 m/s, 88° | 0 W/m² | - |
| 1778013788 | 8.33° C | 83% | 1009.4 hPa | 0 mm | 0 m/s | 0 W/m² | - |
| 1778013608 | 8.33° C | 83% | 1009.3 hPa | 0 mm | 0 m/s | 0 W/m² | - |
| 1778013428 | 8.33° C | 83% | 1009.3 hPa | 0 mm | 0 m/s | 0 W/m² | - |
| 1778013248 | 8.89° C | 83% | 1009.3 hPa | 0 mm | 2.24 m/s, 75° | 0 W/m² | - |
| 1778013068 | 8.89° C | 83% | 1009.2 hPa | 0 mm | 2.24 m/s, 57° | 0 W/m² | - |
* Rain latest hour (hover to see other rain measurements)
** Current wind speed in m/s (hover to see current wind gust speed)